Regional Weather Roundup
Issued by NWS

Home | Current Version | Previous Version | Text Only | Print | Product List | Glossary Off
Versions: 1 2 3 4 5 6 7 8 9 10 11 12 13 14 15 16 17 18 19 20 21 22 23 24 25 26 27 28 29 30 31 32 33 34 35 36 37 38 39 40 41 42 43 44 45 46 47 48 49 50

000
ASUS43 KLMK 310910
RWRKY
KENTUCKY REGIONAL WEATHER ROUNDUP
NATIONAL WEATHER SERVICE LOUISVILLE KY
500 AM EDT THU JUL 31 2014

NOTE "FAIR" INDICATES FEW OR NO CLOUDS BELOW 12,000 FEET
WITH NO SIGNIFICANT WEATHER AND/OR OBSTRUCTIONS TO VISIBILITY.

KYZ001>023-026-027-061>063-070>075-311000-
WESTERN AND SOUTH CENTRAL KENTUCKY

CITY           SKY/WX    TMP DP  RH WIND       PRES   REMARKS
PADUCAH        MOCLDY    62  59  90 CALM      30.07S
HENDERSON      PTCLDY    57  54  88 CALM      30.08R
OWENSBORO      PTCLDY    60  59  97 CALM      30.09S
HOPKINSVILLE   PTCLDY    60  57  90 CALM      30.09S
BOWLING GREEN  CLEAR     60  57  89 CALM      30.09F
GLASGOW        PTCLDY    58  58 100 CALM      30.10S FOG
$$

KYZ024-025-028>034-038-045-046-053-311000-
NORTH CENTRAL KENTUCKY

CITY           SKY/WX    TMP DP  RH WIND       PRES   REMARKS
LOUISVILLE/SDF MOCLDY    67  60  78 CALM      30.08R
LOUISVILLE/LOU CLEAR     62  59  90 CALM      30.08S
FORT KNOX      CLEAR     57  55  94 CALM      30.08S FOG
$$

KYZ035>037-039>044-047>052-055>060-089>105-311000-
NORTHEAST KENTUCKY

CITY           SKY/WX    TMP DP  RH WIND       PRES   REMARKS
LEXINGTON      CLEAR     60  57  89 S5        30.09S
COVINGTON      PTCLDY    65  60  84 CALM      30.07S
FRANKFORT      CLEAR     57  56  96 CALM      30.08S
$$

KYZ054-064>069-076>088-106>120-311000-
SOUTHEAST KENTUCKY

CITY           SKY/WX    TMP DP  RH WIND       PRES   REMARKS
JACKSON        PTCLDY    61  57  87 CALM      30.11S
LONDON         PTCLDY    61  58  90 CALM      30.12S
SOMERSET       CLEAR     57  57 100 CALM      30.12S
MIDDLESBORO    FOG       57  57 100 CALM      30.14R VSB 3/4
MONTICELLO     MOSUNNY   57  57 100 CALM      30.12S FOG
$$




USA.gov is the U.S. government's official web portal to all federal, state and local government web resources and services.